Year,Month,Day,Hour,Minute,Value (Times are PST for temperature in C)
2011,10,25,00,00,3.00
2011,10,25,00,01,3.00
2011,10,25,00,02,3.00
2011,10,25,00,03,3.00
2011,10,25,00,04,2.90
2011,10,25,00,05,2.90
2011,10,25,00,06,2.90
2011,10,25,00,07,2.80
2011,10,25,00,08,2.80
2011,10,25,00,09,2.80
2011,10,25,00,10,2.80
2011,10,25,00,11,2.80
2011,10,25,00,12,2.70
2011,10,25,00,13,2.70
2011,10,25,00,14,2.70
2011,10,25,00,15,2.70
2011,10,25,00,16,2.70
2011,10,25,00,17,2.70
2011,10,25,00,18,2.70
2011,10,25,00,19,2.70
2011,10,25,00,20,2.70
2011,10,25,00,21,2.70
2011,10,25,00,22,2.70
2011,10,25,00,23,2.70
2011,10,25,00,24,2.70
2011,10,25,00,25,2.70
2011,10,25,00,26,2.70
2011,10,25,00,27,2.70
2011,10,25,00,28,2.60
2011,10,25,00,29,2.60
2011,10,25,00,30,2.60
2011,10,25,00,31,2.60
2011,10,25,00,32,2.60
2011,10,25,00,33,2.60
2011,10,25,00,34,2.50
2011,10,25,00,35,2.50
2011,10,25,00,36,2.50
2011,10,25,00,37,2.50
2011,10,25,00,38,2.50
2011,10,25,00,39,2.40
2011,10,25,00,40,2.40
2011,10,25,00,41,2.40
2011,10,25,00,42,2.40
2011,10,25,00,43,2.40
2011,10,25,00,44,2.40
2011,10,25,00,45,2.30
2011,10,25,00,46,2.30
2011,10,25,00,47,2.30
2011,10,25,00,48,2.30
2011,10,25,00,49,2.30
2011,10,25,00,50,2.30
2011,10,25,00,51,2.30
2011,10,25,00,52,2.30
2011,10,25,00,53,2.30
2011,10,25,00,54,2.40
2011,10,25,00,55,2.40
2011,10,25,00,56,2.40
2011,10,25,00,57,2.40
2011,10,25,00,58,2.40
2011,10,25,00,59,2.40
2011,10,25,01,00,2.50
2011,10,25,01,01,2.50
2011,10,25,01,02,2.50
2011,10,25,01,03,2.50
2011,10,25,01,04,2.50
2011,10,25,01,05,2.50
2011,10,25,01,06,2.50
2011,10,25,01,07,2.50
2011,10,25,01,08,2.50
2011,10,25,01,09,2.50
2011,10,25,01,10,2.40
2011,10,25,01,11,2.40
2011,10,25,01,12,2.40
2011,10,25,01,13,2.40
2011,10,25,01,14,2.40
2011,10,25,01,15,2.40
2011,10,25,01,16,2.30
2011,10,25,01,17,2.30
2011,10,25,01,18,2.30
2011,10,25,01,19,2.30
2011,10,25,01,20,2.30
2011,10,25,01,21,2.30
2011,10,25,01,22,2.30
2011,10,25,01,23,2.30
2011,10,25,01,24,2.30
2011,10,25,01,25,2.30
2011,10,25,01,26,2.30
2011,10,25,01,27,2.30
2011,10,25,01,28,2.30
2011,10,25,01,29,2.30
2011,10,25,01,30,2.30
2011,10,25,01,31,2.30
2011,10,25,01,32,2.30
2011,10,25,01,33,2.30
2011,10,25,01,34,2.30
2011,10,25,01,35,2.30
2011,10,25,01,36,2.30
2011,10,25,01,37,2.30
2011,10,25,01,38,2.20
2011,10,25,01,39,2.20
2011,10,25,01,40,2.20
2011,10,25,01,41,2.20
2011,10,25,01,42,2.20
2011,10,25,01,43,2.10
2011,10,25,01,44,2.10
2011,10,25,01,45,2.10
2011,10,25,01,46,2.10
2011,10,25,01,47,2.10
2011,10,25,01,48,2.10
2011,10,25,01,49,2.10
2011,10,25,01,50,2.10
2011,10,25,01,51,2.10
2011,10,25,01,52,2.10
2011,10,25,01,53,2.10
2011,10,25,01,54,2.10
2011,10,25,01,55,2.10
2011,10,25,01,56,2.10
2011,10,25,01,57,2.10
2011,10,25,01,58,2.10
2011,10,25,01,59,2.10
2011,10,25,02,00,2.00
2011,10,25,02,01,2.00
2011,10,25,02,02,2.00
2011,10,25,02,03,2.00
2011,10,25,02,04,2.00
2011,10,25,02,05,2.00
2011,10,25,02,06,2.00
2011,10,25,02,07,1.90
2011,10,25,02,08,1.90
2011,10,25,02,09,1.90
2011,10,25,02,10,2.00
2011,10,25,02,11,1.90
2011,10,25,02,12,2.00
2011,10,25,02,13,2.00
2011,10,25,02,14,2.00
2011,10,25,02,15,2.00
2011,10,25,02,16,2.00
2011,10,25,02,17,2.00
2011,10,25,02,18,2.00
2011,10,25,02,19,2.00
2011,10,25,02,20,2.00
2011,10,25,02,21,2.00
2011,10,25,02,22,2.00
2011,10,25,02,23,2.00
2011,10,25,02,24,1.90
2011,10,25,02,25,1.90
2011,10,25,02,26,1.90
2011,10,25,02,27,1.90
2011,10,25,02,28,1.90
2011,10,25,02,29,1.90
2011,10,25,02,30,1.90
2011,10,25,02,31,1.90
2011,10,25,02,32,1.90
2011,10,25,02,33,1.90
2011,10,25,02,34,1.80
2011,10,25,02,35,1.80
2011,10,25,02,36,1.80
2011,10,25,02,37,1.80
2011,10,25,02,38,1.80
2011,10,25,02,39,1.80
2011,10,25,02,40,1.80
2011,10,25,02,41,1.80
2011,10,25,02,42,1.80
2011,10,25,02,43,1.80
2011,10,25,02,44,1.70
2011,10,25,02,45,1.70
2011,10,25,02,46,1.70
2011,10,25,02,47,1.70
2011,10,25,02,48,1.70
2011,10,25,02,49,1.70
2011,10,25,02,50,1.70
2011,10,25,02,51,1.70
2011,10,25,02,52,1.60
2011,10,25,02,53,1.60
2011,10,25,02,54,1.60
2011,10,25,02,55,1.60
2011,10,25,02,56,1.60
2011,10,25,02,57,1.60
2011,10,25,02,58,1.60
2011,10,25,02,59,1.60
2011,10,25,03,00,1.50
2011,10,25,03,01,1.50
2011,10,25,03,02,1.50
2011,10,25,03,03,1.50
2011,10,25,03,04,1.40
2011,10,25,03,05,1.40
2011,10,25,03,06,1.40
2011,10,25,03,07,1.40
2011,10,25,03,08,1.40
2011,10,25,03,09,1.30
2011,10,25,03,10,1.30
2011,10,25,03,11,1.30
2011,10,25,03,12,1.30
2011,10,25,03,13,1.30
2011,10,25,03,14,1.30
2011,10,25,03,15,1.30
2011,10,25,03,16,1.30
2011,10,25,03,17,1.30
2011,10,25,03,18,1.30
2011,10,25,03,19,1.30
2011,10,25,03,20,1.30
2011,10,25,03,21,1.30
2011,10,25,03,22,1.30
2011,10,25,03,23,1.30
2011,10,25,03,24,1.30
2011,10,25,03,25,1.30
2011,10,25,03,26,1.30
2011,10,25,03,27,1.30
2011,10,25,03,28,1.30
2011,10,25,03,29,1.20
2011,10,25,03,30,1.20
2011,10,25,03,31,1.20
2011,10,25,03,32,1.20
2011,10,25,03,33,1.20
2011,10,25,03,34,1.20
2011,10,25,03,35,1.20
2011,10,25,03,36,1.20
2011,10,25,03,37,1.20
2011,10,25,03,38,1.20
2011,10,25,03,39,1.20
2011,10,25,03,40,1.20
2011,10,25,03,41,1.20
2011,10,25,03,42,1.20
2011,10,25,03,43,1.20
2011,10,25,03,44,1.20
2011,10,25,03,45,1.20
2011,10,25,03,46,1.20
2011,10,25,03,47,1.20
2011,10,25,03,48,1.20
2011,10,25,03,49,1.20
2011,10,25,03,50,1.30
2011,10,25,03,51,1.30
2011,10,25,03,52,1.30
2011,10,25,03,53,1.30
2011,10,25,03,54,1.20
2011,10,25,03,55,1.20
2011,10,25,03,56,1.20
2011,10,25,03,57,1.20
2011,10,25,03,58,1.20
2011,10,25,03,59,1.20
2011,10,25,04,00,1.20
2011,10,25,04,01,1.20
2011,10,25,04,02,1.20
2011,10,25,04,03,1.20
2011,10,25,04,04,1.20
2011,10,25,04,05,1.20
2011,10,25,04,06,1.20
2011,10,25,04,07,1.20
2011,10,25,04,08,1.20
2011,10,25,04,09,1.20
2011,10,25,04,10,1.30
2011,10,25,04,11,1.30
2011,10,25,04,12,1.30
2011,10,25,04,13,1.30
2011,10,25,04,14,1.30
2011,10,25,04,15,1.30
2011,10,25,04,16,1.30
2011,10,25,04,17,1.30
2011,10,25,04,18,1.30
2011,10,25,04,19,1.30
2011,10,25,04,20,1.30
2011,10,25,04,21,1.30
2011,10,25,04,22,1.30
2011,10,25,04,23,1.30
2011,10,25,04,24,1.30
2011,10,25,04,25,1.30
2011,10,25,04,26,1.30
2011,10,25,04,27,1.30
2011,10,25,04,28,1.30
2011,10,25,04,29,1.30
2011,10,25,04,30,1.30
2011,10,25,04,31,1.30
2011,10,25,04,32,1.30
2011,10,25,04,33,1.30
2011,10,25,04,34,1.30
2011,10,25,04,35,1.30
2011,10,25,04,36,1.30
2011,10,25,04,37,1.30
2011,10,25,04,38,1.30
2011,10,25,04,39,1.30
2011,10,25,04,40,1.30
2011,10,25,04,41,1.40
2011,10,25,04,42,1.40
2011,10,25,04,43,1.40
2011,10,25,04,44,1.40
2011,10,25,04,45,1.40
2011,10,25,04,46,1.50
2011,10,25,04,47,1.50
2011,10,25,04,48,1.50
2011,10,25,04,49,1.60
2011,10,25,04,50,1.60
2011,10,25,04,51,1.60
2011,10,25,04,52,1.60
2011,10,25,04,53,1.60
2011,10,25,04,54,1.60
2011,10,25,04,55,1.60
2011,10,25,04,56,1.60
2011,10,25,04,57,1.60
2011,10,25,04,58,1.60
2011,10,25,04,59,1.60
2011,10,25,05,00,1.60
2011,10,25,05,01,1.60
2011,10,25,05,02,1.60
2011,10,25,05,03,1.60
2011,10,25,05,04,1.60
2011,10,25,05,05,1.60
2011,10,25,05,06,1.70
2011,10,25,05,07,1.70
2011,10,25,05,08,1.70
2011,10,25,05,09,1.70
2011,10,25,05,10,1.70
2011,10,25,05,11,1.70
2011,10,25,05,12,1.70
2011,10,25,05,13,1.70
2011,10,25,05,14,1.80
2011,10,25,05,15,1.80
2011,10,25,05,16,1.80
2011,10,25,05,17,1.80
2011,10,25,05,18,1.80
2011,10,25,05,19,1.80
2011,10,25,05,20,1.80
2011,10,25,05,21,1.80
2011,10,25,05,22,1.80
2011,10,25,05,23,1.90
2011,10,25,05,24,1.90
2011,10,25,05,25,1.90
2011,10,25,05,26,1.90
2011,10,25,05,27,1.90
2011,10,25,05,28,1.90
2011,10,25,05,29,1.90
2011,10,25,05,30,1.90
2011,10,25,05,31,1.90
2011,10,25,05,32,1.90
2011,10,25,05,33,2.00
2011,10,25,05,34,2.00
2011,10,25,05,35,2.00
2011,10,25,05,36,2.00
2011,10,25,05,37,2.00
2011,10,25,05,38,2.10
2011,10,25,05,39,2.10
2011,10,25,05,40,2.10
2011,10,25,05,41,2.10
2011,10,25,05,42,2.10
2011,10,25,05,43,2.10
2011,10,25,05,44,2.10
2011,10,25,05,45,2.10
2011,10,25,05,46,2.20
2011,10,25,05,47,2.20
2011,10,25,05,48,2.20
2011,10,25,05,49,2.20
2011,10,25,05,50,2.20
2011,10,25,05,51,2.20
2011,10,25,05,52,2.20
2011,10,25,05,53,2.20
2011,10,25,05,54,2.20
2011,10,25,05,55,2.20
2011,10,25,05,56,2.20
2011,10,25,05,57,2.20
2011,10,25,05,58,2.20
2011,10,25,05,59,2.20
2011,10,25,06,00,2.20
2011,10,25,06,01,2.20
2011,10,25,06,02,2.20
2011,10,25,06,03,2.20
2011,10,25,06,04,2.20
2011,10,25,06,05,2.20
2011,10,25,06,06,2.20
2011,10,25,06,07,2.20
2011,10,25,06,08,2.20
2011,10,25,06,09,2.20
2011,10,25,06,10,2.20
2011,10,25,06,11,2.20
2011,10,25,06,12,2.20
2011,10,25,06,13,2.20
2011,10,25,06,14,2.20
2011,10,25,06,15,2.20
2011,10,25,06,16,2.20
2011,10,25,06,17,2.20
2011,10,25,06,18,2.20
2011,10,25,06,19,2.20
2011,10,25,06,20,2.20
2011,10,25,06,21,2.20
2011,10,25,06,22,2.20
2011,10,25,06,23,2.20
2011,10,25,06,24,2.30
2011,10,25,06,25,2.30
2011,10,25,06,26,2.30
2011,10,25,06,27,2.30
2011,10,25,06,28,2.30
2011,10,25,06,29,2.30
2011,10,25,06,30,2.30
2011,10,25,06,31,2.30
2011,10,25,06,32,2.30
2011,10,25,06,33,2.30
2011,10,25,06,34,2.30
2011,10,25,06,35,2.30
2011,10,25,06,36,2.30
2011,10,25,06,37,2.30
2011,10,25,06,38,2.30
2011,10,25,06,39,2.30
2011,10,25,06,40,2.30
2011,10,25,06,41,2.30
2011,10,25,06,42,2.30
2011,10,25,06,43,2.30
2011,10,25,06,44,2.30
2011,10,25,06,45,2.30
2011,10,25,06,46,2.30
2011,10,25,06,47,2.30
2011,10,25,06,48,2.30
2011,10,25,06,49,2.30
2011,10,25,06,50,2.30
2011,10,25,06,51,2.30
2011,10,25,06,52,2.30
2011,10,25,06,53,2.30
2011,10,25,06,54,2.30
2011,10,25,06,55,2.40
2011,10,25,06,56,2.40
2011,10,25,06,57,2.40
2011,10,25,06,58,2.40
2011,10,25,06,59,2.40
2011,10,25,07,00,2.40
2011,10,25,07,01,2.40
2011,10,25,07,02,2.40
2011,10,25,07,03,2.40
2011,10,25,07,04,2.40
2011,10,25,07,05,2.40
2011,10,25,07,06,2.40
2011,10,25,07,07,2.40
2011,10,25,07,08,2.40
2011,10,25,07,09,2.40
2011,10,25,07,10,2.40
2011,10,25,07,11,2.40
2011,10,25,07,12,2.40
2011,10,25,07,13,2.40
2011,10,25,07,14,2.40
2011,10,25,07,15,2.40
2011,10,25,07,16,2.40
2011,10,25,07,17,2.40
2011,10,25,07,18,2.40
2011,10,25,07,19,2.40
2011,10,25,07,20,2.40
2011,10,25,07,21,2.40
2011,10,25,07,22,2.40
2011,10,25,07,23,2.40
2011,10,25,07,24,2.40
2011,10,25,07,25,2.40
2011,10,25,07,26,2.40
2011,10,25,07,27,2.40
2011,10,25,07,28,2.40
2011,10,25,07,29,2.40
2011,10,25,07,30,2.40
2011,10,25,07,31,2.40
2011,10,25,07,32,2.40
2011,10,25,07,33,2.40
2011,10,25,07,34,2.40
2011,10,25,07,35,2.40
2011,10,25,07,36,2.40
2011,10,25,07,37,2.40
2011,10,25,07,38,2.40
2011,10,25,07,39,2.40
2011,10,25,07,40,2.40
2011,10,25,07,41,2.40
2011,10,25,07,42,2.40
2011,10,25,07,43,2.40
2011,10,25,07,44,2.40
2011,10,25,07,45,2.40
2011,10,25,07,46,2.40
2011,10,25,07,47,2.40
2011,10,25,07,48,2.40
2011,10,25,07,49,2.40
2011,10,25,07,50,2.40
2011,10,25,07,51,2.40
2011,10,25,07,52,2.40
2011,10,25,07,53,2.40
2011,10,25,07,54,2.40
2011,10,25,07,55,2.40
2011,10,25,07,56,2.40
2011,10,25,07,57,2.40
2011,10,25,07,58,2.40
2011,10,25,07,59,2.40
2011,10,25,08,00,2.40
2011,10,25,08,01,2.40
2011,10,25,08,02,2.50
2011,10,25,08,03,2.50
2011,10,25,08,04,2.50
2011,10,25,08,05,2.50
2011,10,25,08,06,2.50
2011,10,25,08,07,2.50
2011,10,25,08,08,2.50
2011,10,25,08,09,2.50
2011,10,25,08,10,2.50
2011,10,25,08,11,2.50
2011,10,25,08,12,2.50
2011,10,25,08,13,2.60
2011,10,25,08,14,2.60
2011,10,25,08,15,2.60
2011,10,25,08,16,2.60
2011,10,25,08,17,2.60
2011,10,25,08,18,2.60
2011,10,25,08,19,2.60
2011,10,25,08,20,2.60
2011,10,25,08,21,2.60
2011,10,25,08,22,2.60
2011,10,25,08,23,2.70
2011,10,25,08,24,2.70
2011,10,25,08,25,2.70
2011,10,25,08,26,2.70
2011,10,25,08,27,2.70
2011,10,25,08,28,2.70
2011,10,25,08,29,2.70
2011,10,25,08,30,2.70
2011,10,25,08,31,2.70
2011,10,25,08,32,2.70
2011,10,25,08,33,2.70
2011,10,25,08,34,2.70
2011,10,25,08,35,2.70
2011,10,25,08,36,2.70
2011,10,25,08,37,2.80
2011,10,25,08,38,2.80
2011,10,25,08,39,2.80
2011,10,25,08,40,2.80
2011,10,25,08,41,2.80
2011,10,25,08,42,2.80
2011,10,25,08,43,2.80
2011,10,25,08,44,2.80
2011,10,25,08,45,2.80
2011,10,25,08,46,2.80
2011,10,25,08,47,2.80
2011,10,25,08,48,2.90
2011,10,25,08,49,2.90
2011,10,25,08,50,2.90
2011,10,25,08,51,2.90
2011,10,25,08,52,2.90
2011,10,25,08,53,3.00
2011,10,25,08,54,3.00
2011,10,25,08,55,3.00
2011,10,25,08,56,3.10
2011,10,25,08,57,3.10
2011,10,25,08,58,3.10
2011,10,25,08,59,3.20
2011,10,25,09,00,3.20
2011,10,25,09,01,3.20
2011,10,25,09,02,3.20
2011,10,25,09,03,3.20
2011,10,25,09,04,3.20
2011,10,25,09,05,3.30
2011,10,25,09,06,3.30
2011,10,25,09,07,3.30
2011,10,25,09,08,3.30
2011,10,25,09,09,3.40
2011,10,25,09,10,3.40
2011,10,25,09,11,3.40
2011,10,25,09,12,3.40
2011,10,25,09,13,3.40
2011,10,25,09,14,3.50
2011,10,25,09,15,3.50
2011,10,25,09,16,3.50
2011,10,25,09,17,3.50
2011,10,25,09,18,3.60
2011,10,25,09,19,3.60
2011,10,25,09,20,3.60
2011,10,25,09,21,3.60
2011,10,25,09,22,3.60
2011,10,25,09,23,3.60
2011,10,25,09,24,3.60
2011,10,25,09,25,3.60
2011,10,25,09,26,3.60
2011,10,25,09,27,3.60
2011,10,25,09,28,3.60
2011,10,25,09,29,3.60
2011,10,25,09,30,3.60
2011,10,25,09,31,3.60
2011,10,25,09,32,3.60
2011,10,25,09,33,3.60
2011,10,25,09,34,3.60
2011,10,25,09,35,3.60
2011,10,25,09,36,3.60
2011,10,25,09,37,3.60
2011,10,25,09,38,3.60
2011,10,25,09,39,3.60
2011,10,25,09,40,3.60
2011,10,25,09,41,3.60
2011,10,25,09,42,3.60
2011,10,25,09,43,3.60
2011,10,25,09,44,3.70
2011,10,25,09,45,3.70
2011,10,25,09,46,3.70
2011,10,25,09,47,3.70
2011,10,25,09,48,3.70
2011,10,25,09,49,3.80
2011,10,25,09,50,3.80
2011,10,25,09,51,3.80
2011,10,25,09,52,3.80
2011,10,25,09,53,3.80
2011,10,25,09,54,3.80
2011,10,25,09,55,3.80
2011,10,25,09,56,3.90
2011,10,25,09,57,3.90
2011,10,25,09,58,3.90
2011,10,25,09,59,3.90
2011,10,25,10,00,4.00
2011,10,25,10,01,4.00
2011,10,25,10,02,4.00
2011,10,25,10,03,4.10
2011,10,25,10,04,4.10
2011,10,25,10,05,4.10
2011,10,25,10,06,4.10
2011,10,25,10,07,4.20
2011,10,25,10,08,4.20
2011,10,25,10,09,4.30
2011,10,25,10,10,4.30
2011,10,25,10,11,4.30
2011,10,25,10,12,4.30
2011,10,25,10,13,4.30
2011,10,25,10,14,4.30
2011,10,25,10,15,4.30
2011,10,25,10,16,4.30
2011,10,25,10,17,4.30
2011,10,25,10,18,4.30
2011,10,25,10,19,4.30
2011,10,25,10,20,4.30
2011,10,25,10,21,4.30
2011,10,25,10,22,4.30
2011,10,25,10,23,4.30
2011,10,25,10,24,4.30
2011,10,25,10,25,4.40
2011,10,25,10,26,4.40
2011,10,25,10,27,4.40
2011,10,25,10,28,4.40
2011,10,25,10,29,4.40
2011,10,25,10,30,4.40
2011,10,25,10,31,4.40
2011,10,25,10,32,4.40
2011,10,25,10,33,4.40
2011,10,25,10,34,4.40
2011,10,25,10,35,4.40
2011,10,25,10,36,4.40
2011,10,25,10,37,4.40
2011,10,25,10,38,4.40
2011,10,25,10,39,4.40
2011,10,25,10,40,4.50
2011,10,25,10,41,4.50
2011,10,25,10,42,4.50
2011,10,25,10,43,4.60
2011,10,25,10,44,4.60
2011,10,25,10,45,4.60
2011,10,25,10,46,4.60
2011,10,25,10,47,4.70
2011,10,25,10,48,4.70
2011,10,25,10,49,4.70
2011,10,25,10,50,4.80
2011,10,25,10,51,4.80
2011,10,25,10,52,4.90
2011,10,25,10,53,4.90
2011,10,25,10,54,5.00
2011,10,25,10,55,5.00
2011,10,25,10,56,5.10
2011,10,25,10,57,5.10
2011,10,25,10,58,5.10
2011,10,25,10,59,5.10
2011,10,25,11,00,5.10
2011,10,25,11,01,5.10
2011,10,25,11,02,5.10
2011,10,25,11,03,5.10
2011,10,25,11,04,5.10
2011,10,25,11,05,5.20
2011,10,25,11,06,5.30
2011,10,25,11,07,5.30
2011,10,25,11,08,5.40
2011,10,25,11,09,5.40
2011,10,25,11,10,5.50
2011,10,25,11,11,5.50
2011,10,25,11,12,5.60
2011,10,25,11,13,5.70
2011,10,25,11,14,5.80
2011,10,25,11,15,5.80
2011,10,25,11,16,5.90
2011,10,25,11,17,6.00
2011,10,25,11,18,6.10
2011,10,25,11,19,6.10
2011,10,25,11,20,6.20
2011,10,25,11,21,6.20
2011,10,25,11,22,6.20
2011,10,25,11,23,6.10
2011,10,25,11,24,6.10
2011,10,25,11,25,6.10
2011,10,25,11,26,6.20
2011,10,25,11,27,6.20
2011,10,25,11,28,6.10
2011,10,25,11,29,6.20
2011,10,25,11,30,6.20
2011,10,25,11,31,6.20
2011,10,25,11,32,6.20
2011,10,25,11,33,6.30
2011,10,25,11,34,6.40
2011,10,25,11,35,6.40
2011,10,25,11,36,6.50
2011,10,25,11,37,6.60
2011,10,25,11,38,6.60
2011,10,25,11,39,6.70
2011,10,25,11,40,6.70
2011,10,25,11,41,6.80
2011,10,25,11,42,6.80
2011,10,25,11,43,6.80
2011,10,25,11,44,6.90
2011,10,25,11,45,6.90
2011,10,25,11,46,7.00
2011,10,25,11,47,7.10
2011,10,25,11,48,7.20
2011,10,25,11,49,7.30
2011,10,25,11,50,7.40
2011,10,25,11,51,7.50
2011,10,25,11,52,7.50
2011,10,25,11,53,7.60
2011,10,25,11,54,7.70
2011,10,25,11,55,7.80
2011,10,25,11,56,7.80
2011,10,25,11,57,7.80
2011,10,25,11,58,7.80
2011,10,25,11,59,7.90
2011,10,25,12,00,7.90
2011,10,25,12,01,7.90
2011,10,25,12,02,7.90
2011,10,25,12,03,8.00
2011,10,25,12,04,8.00
2011,10,25,12,05,8.00
2011,10,25,12,06,8.00
2011,10,25,12,07,8.00
2011,10,25,12,08,8.10
2011,10,25,12,09,8.10
2011,10,25,12,10,8.20
2011,10,25,12,11,8.30
2011,10,25,12,12,8.30
2011,10,25,12,13,8.40
2011,10,25,12,14,8.40
2011,10,25,12,15,8.50
2011,10,25,12,16,8.60
2011,10,25,12,17,8.70
2011,10,25,12,18,8.80
2011,10,25,12,19,8.90
2011,10,25,12,20,8.90
2011,10,25,12,21,9.00
2011,10,25,12,22,9.00
2011,10,25,12,23,9.10
2011,10,25,12,24,9.20
2011,10,25,12,25,9.20
2011,10,25,12,26,9.30
2011,10,25,12,27,9.30
2011,10,25,12,28,9.30
2011,10,25,12,29,9.40
2011,10,25,12,30,9.40
2011,10,25,12,31,9.40
2011,10,25,12,32,9.50
2011,10,25,12,33,9.60
2011,10,25,12,34,9.60
2011,10,25,12,35,9.60
2011,10,25,12,36,9.60
2011,10,25,12,37,9.60
2011,10,25,12,38,9.60
2011,10,25,12,39,9.70
2011,10,25,12,40,9.70
2011,10,25,12,41,9.70
2011,10,25,12,42,9.70
2011,10,25,12,43,9.70
2011,10,25,12,44,9.70
2011,10,25,12,45,9.70
2011,10,25,12,46,9.70
2011,10,25,12,47,9.70
2011,10,25,12,48,9.80
2011,10,25,12,49,9.80
2011,10,25,12,50,9.90
2011,10,25,12,51,9.90
2011,10,25,12,52,9.90
2011,10,25,12,53,10.00
2011,10,25,12,54,10.10
2011,10,25,12,55,10.10
2011,10,25,12,56,10.20
2011,10,25,12,57,10.20
2011,10,25,12,58,10.20
2011,10,25,12,59,10.30
2011,10,25,13,00,10.30
2011,10,25,13,01,10.40
2011,10,25,13,02,10.40
2011,10,25,13,03,10.50
2011,10,25,13,04,10.50
2011,10,25,13,05,10.50
2011,10,25,13,06,10.50
2011,10,25,13,07,10.50
2011,10,25,13,08,10.40
2011,10,25,13,09,10.40
2011,10,25,13,10,10.40
2011,10,25,13,11,10.30
2011,10,25,13,12,10.30
2011,10,25,13,13,10.20
2011,10,25,13,14,10.20
2011,10,25,13,15,10.20
2011,10,25,13,16,10.20
2011,10,25,13,17,10.20
2011,10,25,13,18,10.20
2011,10,25,13,19,10.20
2011,10,25,13,20,10.30
2011,10,25,13,21,10.40
2011,10,25,13,22,10.40
2011,10,25,13,23,10.40
2011,10,25,13,24,10.50
2011,10,25,13,25,10.60
2011,10,25,13,26,10.60
2011,10,25,13,27,10.60
2011,10,25,13,28,10.50
2011,10,25,13,29,10.50
2011,10,25,13,30,10.50
2011,10,25,13,31,10.40
2011,10,25,13,32,10.40
2011,10,25,13,33,10.40
2011,10,25,13,34,10.30
2011,10,25,13,35,10.30
2011,10,25,13,36,10.30
2011,10,25,13,37,10.30
2011,10,25,13,38,10.40
2011,10,25,13,39,10.40
2011,10,25,13,40,10.40
2011,10,25,13,41,10.40
2011,10,25,13,42,10.40
2011,10,25,13,43,10.40
2011,10,25,13,44,10.40
2011,10,25,13,45,10.40
2011,10,25,13,46,10.50
2011,10,25,13,47,10.50
2011,10,25,13,48,10.50
2011,10,25,13,49,10.50
2011,10,25,13,50,10.40
2011,10,25,13,51,10.50
2011,10,25,13,52,10.50
2011,10,25,13,53,10.60
2011,10,25,13,54,10.70
2011,10,25,13,55,10.70
2011,10,25,13,56,10.70
2011,10,25,13,57,10.60
2011,10,25,13,58,10.60
2011,10,25,13,59,10.60
2011,10,25,14,00,10.60
2011,10,25,14,01,10.70
2011,10,25,14,02,10.70
2011,10,25,14,03,10.70
2011,10,25,14,04,10.70
2011,10,25,14,05,10.70
2011,10,25,14,06,10.70
2011,10,25,14,07,10.70
2011,10,25,14,08,10.70
2011,10,25,14,09,10.70
2011,10,25,14,10,10.80
2011,10,25,14,11,10.80
2011,10,25,14,12,10.80
2011,10,25,14,13,10.90
2011,10,25,14,14,10.90
2011,10,25,14,15,11.00
2011,10,25,14,16,11.10
2011,10,25,14,17,11.10
2011,10,25,14,18,11.10
2011,10,25,14,19,11.10
2011,10,25,14,20,11.10
2011,10,25,14,21,11.00
2011,10,25,14,22,10.90
2011,10,25,14,23,10.90
2011,10,25,14,24,10.90
2011,10,25,14,25,10.80
2011,10,25,14,26,10.80
2011,10,25,14,27,10.80
2011,10,25,14,28,10.80
2011,10,25,14,29,10.90
2011,10,25,14,30,10.90
2011,10,25,14,31,10.90
2011,10,25,14,32,10.90
2011,10,25,14,33,10.90
2011,10,25,14,34,10.90
2011,10,25,14,35,10.90
2011,10,25,14,36,10.90
2011,10,25,14,37,10.80
2011,10,25,14,38,10.80
2011,10,25,14,39,10.70
2011,10,25,14,40,10.70
2011,10,25,14,41,10.70
2011,10,25,14,42,10.70
2011,10,25,14,43,10.70
2011,10,25,14,44,10.70
2011,10,25,14,45,10.70
2011,10,25,14,46,10.80
2011,10,25,14,47,10.80
2011,10,25,14,48,10.80
2011,10,25,14,49,10.80
2011,10,25,14,50,10.80
2011,10,25,14,51,10.80
2011,10,25,14,52,10.80
2011,10,25,14,53,10.70
2011,10,25,14,54,10.70
2011,10,25,14,55,10.70
2011,10,25,14,56,10.70
2011,10,25,14,57,10.70
2011,10,25,14,58,10.70
2011,10,25,14,59,10.70
2011,10,25,15,00,10.70
2011,10,25,15,01,10.80
2011,10,25,15,02,10.80
2011,10,25,15,03,10.80
2011,10,25,15,04,10.80
2011,10,25,15,05,10.80
2011,10,25,15,06,10.80
2011,10,25,15,07,10.80
2011,10,25,15,08,10.80
2011,10,25,15,09,10.90
2011,10,25,15,10,11.00
2011,10,25,15,11,11.00
2011,10,25,15,12,11.00
2011,10,25,15,13,11.00
2011,10,25,15,14,11.10
2011,10,25,15,15,11.10
2011,10,25,15,16,11.00
2011,10,25,15,17,10.90
2011,10,25,15,18,10.90
2011,10,25,15,19,10.90
2011,10,25,15,20,10.90
2011,10,25,15,21,10.90
2011,10,25,15,22,10.90
2011,10,25,15,23,10.90
2011,10,25,15,24,10.90
2011,10,25,15,25,10.90
2011,10,25,15,26,10.90
2011,10,25,15,27,10.90
2011,10,25,15,28,10.90
2011,10,25,15,29,10.90
2011,10,25,15,30,10.90
2011,10,25,15,31,10.90
2011,10,25,15,32,10.90
2011,10,25,15,33,10.90
2011,10,25,15,34,10.80
2011,10,25,15,35,10.80
2011,10,25,15,36,10.80
2011,10,25,15,37,10.80
2011,10,25,15,38,10.80
2011,10,25,15,39,10.90
2011,10,25,15,40,10.90
2011,10,25,15,41,10.90
2011,10,25,15,42,10.90
2011,10,25,15,43,10.90
2011,10,25,15,44,10.90
2011,10,25,15,45,10.90
2011,10,25,15,46,10.90
2011,10,25,15,47,10.90
2011,10,25,15,48,10.80
2011,10,25,15,49,10.80
2011,10,25,15,50,10.80
2011,10,25,15,51,10.80
2011,10,25,15,52,10.80
2011,10,25,15,53,10.80
2011,10,25,15,54,10.80
2011,10,25,15,55,10.70
2011,10,25,15,56,10.70
2011,10,25,15,57,10.60
2011,10,25,15,58,10.60
2011,10,25,15,59,10.60
2011,10,25,16,00,10.60
2011,10,25,16,01,10.50
2011,10,25,16,02,10.50
2011,10,25,16,03,10.50
2011,10,25,16,04,10.50
2011,10,25,16,05,10.50
2011,10,25,16,06,10.40
2011,10,25,16,07,10.40
2011,10,25,16,08,10.40
2011,10,25,16,09,10.40
2011,10,25,16,10,10.30
2011,10,25,16,11,10.30
2011,10,25,16,12,10.30
2011,10,25,16,13,10.30
2011,10,25,16,14,10.30
2011,10,25,16,15,10.30
2011,10,25,16,16,10.20
2011,10,25,16,17,10.20
2011,10,25,16,18,10.20
2011,10,25,16,19,10.20
2011,10,25,16,20,10.20
2011,10,25,16,21,10.20
2011,10,25,16,22,10.20
2011,10,25,16,23,10.20
2011,10,25,16,24,10.20
2011,10,25,16,25,10.20
2011,10,25,16,26,10.20
2011,10,25,16,27,10.20
2011,10,25,16,28,10.10
2011,10,25,16,29,10.10
2011,10,25,16,30,10.10
2011,10,25,16,31,10.10
2011,10,25,16,32,10.00
2011,10,25,16,33,10.00
2011,10,25,16,34,10.00
2011,10,25,16,35,10.00
2011,10,25,16,36,9.90
2011,10,25,16,37,9.90
2011,10,25,16,38,9.90
2011,10,25,16,39,9.90
2011,10,25,16,40,9.90
2011,10,25,16,41,9.90
2011,10,25,16,42,9.90
2011,10,25,16,43,9.80
2011,10,25,16,44,9.80
2011,10,25,16,45,9.80
2011,10,25,16,46,9.80
2011,10,25,16,47,9.80
2011,10,25,16,48,9.80
2011,10,25,16,49,9.80
2011,10,25,16,50,9.80
2011,10,25,16,51,9.80
2011,10,25,16,52,9.80
2011,10,25,16,53,9.80
2011,10,25,16,54,9.80
2011,10,25,16,55,9.80
2011,10,25,16,56,9.70
2011,10,25,16,57,9.70
2011,10,25,16,58,9.70
2011,10,25,16,59,9.60
2011,10,25,17,00,9.60
2011,10,25,17,01,9.60
2011,10,25,17,02,9.50
2011,10,25,17,03,9.50
2011,10,25,17,04,9.40
2011,10,25,17,05,9.40
2011,10,25,17,06,9.40
2011,10,25,17,07,9.40
2011,10,25,17,08,9.40
2011,10,25,17,09,9.30
2011,10,25,17,10,9.30
2011,10,25,17,11,9.30
2011,10,25,17,12,9.30
2011,10,25,17,13,9.20
2011,10,25,17,14,9.20
2011,10,25,17,15,9.20
2011,10,25,17,16,9.20
2011,10,25,17,17,9.20
2011,10,25,17,18,9.10
2011,10,25,17,19,9.10
2011,10,25,17,20,9.10
2011,10,25,17,21,9.10
2011,10,25,17,22,9.00
2011,10,25,17,23,9.00
2011,10,25,17,24,9.00
2011,10,25,17,25,8.90
2011,10,25,17,26,8.90
2011,10,25,17,27,8.90
2011,10,25,17,28,8.90
2011,10,25,17,29,8.90
2011,10,25,17,30,8.80
2011,10,25,17,31,8.80
2011,10,25,17,32,8.80
2011,10,25,17,33,8.80
2011,10,25,17,34,8.80
2011,10,25,17,35,8.80
2011,10,25,17,36,8.70
2011,10,25,17,37,8.70
2011,10,25,17,38,8.70
2011,10,25,17,39,8.70
2011,10,25,17,40,8.60
2011,10,25,17,41,8.60
2011,10,25,17,42,8.60
2011,10,25,17,43,8.60
2011,10,25,17,44,8.50
2011,10,25,17,45,8.50
2011,10,25,17,46,8.40
2011,10,25,17,47,8.40
2011,10,25,17,48,8.40
2011,10,25,17,49,8.40
2011,10,25,17,50,8.30
2011,10,25,17,51,8.30
2011,10,25,17,52,8.30
2011,10,25,17,53,8.20
2011,10,25,17,54,8.20
2011,10,25,17,55,8.20
2011,10,25,17,56,8.20